Location: Rancho Del Sol Observatory
(38.7214°N, 120.6350°W)
Time: 12:30:56
(UTC-07:00)

Daily predictions for brighter satellites

Satellite Brightness Start Highest point End
(mag) Time Altitude Azimuth Time Altitude Azimuth Time Altitude Azimuth
Cosmos 1553 Rocket 4.3 20:06:29 10° N 20:12:20 44° ENE 20:18:05 10° SSE
Cosmos 405 Rocket 4.4 20:11:11 10° NNW 20:14:47 38° W 20:18:26 10° SSW
SL-16 R/B 2.4 20:09:37 10° S 20:15:01 49° ESE 20:20:28 10° NE
Cosmos 2151 Rocket 3.9 20:11:54 10° SSE 20:16:01 43° E 20:20:12 10° NNE
Cosmos 44 Rocket 3.4 20:13:33 10° NNW 20:18:20 79° WSW 20:23:09 10° SSE
Cosmos 1954 Rocket 4.0 20:16:02 10° NNW 20:21:23 78° ENE 20:26:42 10° SSE
DELTA 2 R/B (1) 4.1 20:19:57 10° W 20:25:24 53° SSW 20:30:50 10° SE
Okean 1 3.5 20:24:42 10° N 20:28:41 74° W 20:32:38 10° S
Cosmos 1536 Rocket 3.9 20:27:34 10° N 20:31:44 45° E 20:35:53 10° SSE
Cosmos 1939 Rocket 3.8 20:29:56 10° SE 20:33:23 29° ENE 20:36:49 10° N
Cosmos 1536 3.5 20:29:52 10° SSE 20:33:33 34° E 20:37:14 10° NNE
Lacrosse 5 rocket 2.1 20:31:00 10° NW 20:34:31 44° SW 20:38:12 10° SSE
Meteor 1-19 Rocket 4.3 20:28:58 10° N 20:34:48 63° ENE 20:40:31 10° SSE
Cosmos 2360 Rocket 3.0 20:30:53 10° SSE 20:35:33 28° ESE 20:40:15 10° NE
ATLAS 3B R/B 3.9 20:30:35 10° NNW 20:36:07 26° NE 20:41:11 11° E
Cosmos 1980 Rocket 3.9 20:31:28 10° SW 20:36:38 37° WNW 20:41:48 10° N
COSMOS 2428 4.4 20:37:40 12° E 20:38:00 12° E 20:39:53 10° ENE
Cosmos 1741 Rocket 4.3 20:34:55 10° N 20:40:02 50° ENE 20:44:56 11° SE
Envisat 3.1 20:35:30 10° SSE 20:40:28 58° ENE 20:45:28 10° N
USA 267 3.7 20:40:06 10° SSE 20:46:34 62° SW 20:53:04 10° NW
CZ-2D R/B 3.8 20:43:41 10° S 20:47:30 61° W 20:51:20 10° NNW
NOSS 2-3 (D) 3.8 20:43:13 10° SSW 20:47:49 82° ESE 20:53:06 10° NE
Meteor 1-5 Rocket 4.4 20:44:43 10° SSE 20:49:43 43° E 20:54:42 10° NNE
Cosmos 44 4.4 20:47:48 10° NW 20:51:55 38° WSW 20:56:12 10° S
USA 186 2.5 20:55:35 10° S 20:58:53 57° W 21:02:14 10° NNW
Meteor 2-4 Rocket 3.7 20:55:53 10° N 21:01:29 75° E 21:07:13 10° SSE
Delta 2 Rocket 3.8 21:00:04 10° WSW 21:03:53 43° SSE 21:05:56 25° ESE
Helios 1B rocket 2.8 21:03:55 10° NNE 21:07:49 41° E 21:10:18 20° SSE
Cosmos 1110 Rocket 4.1 21:04:05 10° S 21:09:04 52° ESE 21:14:05 10° NNE
SPOT 5 4.4 21:12:51 18° ENE 21:13:37 18° ENE 21:16:49 10° NNE
ATLAS 2AS CENTAUR R/B 3.0 21:06:23 10° SSW 21:14:01 87° ESE 21:22:10 10° NNE
Lacrosse 5 2.0 21:11:23 10° SW 21:16:27 75° NW 21:21:33 10° NE
Cosmos 1850 Rocket 4.4 21:16:19 10° NNW 21:21:36 64° WSW 21:25:55 15° S
Cosmos 1331 Rocket 3.9 21:16:56 10° S 21:22:01 61° ESE 21:27:10 10° NNE
Cosmos 883 Rocket 4.4 21:19:36 10° N 21:25:46 84° E 21:30:38 17° S
SeaSat 1 3.0 21:22:53 10° NNE 21:27:45 61° WNW 21:32:36 10° SW
Tiangong 1 1.0 21:26:16 10° WNW 21:28:44 64° W 21:28:44 64° W
BREEZE-M DEB (TANK) 4.0 21:28:08 10° W 21:30:17 18° NNW 21:31:42 11° NNE
Atlas Centaur 2 3.6 21:23:38 10° W 21:31:03 37° SSW 21:34:08 26° SSE
Okean 1 Rocket 3.2 21:26:49 10° SSW 21:31:08 71° W 21:35:31 10° N
GPS 2-05 Rocket1 4.0 21:29:01 10° W 21:31:45 29° SSW 21:31:45 29° SSW
Cosmos 220 Rocket 3.9 21:28:01 10° NNW 21:32:21 88° W 21:33:55 39° SSE
YAOGAN 6 2.7 21:31:08 36° S 21:32:25 68° W 21:35:56 10° NNW
ARGOS 3.7 21:31:25 33° ESE 21:32:47 39° ENE 21:37:43 10° N
Cosmos 1025 Rocket 2.8 21:31:40 10° N 21:35:57 76° E 21:37:03 48° SSE
Okean 2 3.3 21:32:25 10° N 21:36:29 64° E 21:37:03 56° SE
Cosmos 1244 Rocket 4.5 21:34:04 26° SSE 21:37:29 58° E 21:43:28 10° NNE
Abrixas rocket 4.4 21:39:23 10° NW 21:41:44 18° NNE 21:42:28 17° NNE
Cosmos 1607 4.1 21:36:55 10° NW 21:43:23 73° WSW 21:46:36 31° SSE
Cosmos 2263 Rocket 2.8 21:38:29 10° NNW 21:44:01 54° WSW 21:47:25 23° S
Resurs 01 Rocket 4.3 21:43:37 10° SW 21:46:33 17° W 21:49:30 10° NW
Okean 1-7 Rocket 3.5 21:42:09 10° N 21:46:40 87° W 21:47:54 48° S
Cosmos 2322 Rocket 4.2 21:42:00 10° WSW 21:46:56 29° WNW 21:51:53 10° N
Cosmos 2278 Rocket 4.1 21:44:25 10° NNE 21:47:32 15° NE 21:48:29 14° ENE
Cosmos 1515 3.6 21:44:16 10° N 21:47:54 72° NE 21:47:54 72° NE
Cosmos 1818 3.6 21:50:29 51° ESE 21:50:29 51° ESE 21:55:42 10° NE
Cosmos 1975 3.8 21:52:10 35° NE 21:52:10 35° NE 21:54:46 10° NNE
Cosmos 1844 Rocket 3.4 21:45:48 10° N 21:51:02 37° ENE 21:51:49 35° ENE
SPOT 1/Viking Rocket 4.3 21:51:20 35° ENE 21:51:32 35° ENE 21:56:15 10° N
Cosmos 2237 4.1 21:47:38 10° SSW 21:53:18 81° ESE 21:59:01 10° NNE
Terra 3.7 21:55:49 17° NE 21:55:49 17° NE 21:58:06 10° NNE
Helios 1A 3.9 21:54:43 30° SSW 21:56:20 45° W 22:00:26 10° NNW
Meteor 1-29 3.9 21:58:01 10° N 22:01:18 45° WNW 22:01:32 44° W
Cosmos 1500 3.4 22:01:57 67° NNW 22:01:57 67° NNW 22:05:24 10° N
MetOp-B 4.0 22:00:52 56° SSE 22:02:03 85° ENE 22:07:26 10° NNW
Cosmos 2219 Rocket 3.2 22:06:05 30° ENE 22:06:05 30° ENE 22:09:20 10° NE
USA 245 3.7 22:05:52 69° ENE 22:05:52 69° ENE 22:10:09 10° N
ERS-1 Rocket 3.1 22:06:41 52° SSW 22:07:48 70° WSW 22:12:49 10° NNW
Cosmos 2315 Rocket 4.4 22:03:35 10° NNW 22:09:43 59° W 22:13:09 27° SSW
Meteor 1-12 Rocket 4.1 22:09:22 65° SE 22:10:03 73° E 22:15:41 10° NNE
Cosmos 2322 4.3 22:04:54 10° SW 22:10:26 56° WNW 22:16:02 10° NNE
NOSS 3-2 (A) 4.4 22:03:27 10° NNW 22:10:45 50° NE 22:13:01 40° E
USA 238 DEB 3.7 22:05:55 10° NNW 22:13:03 85° ENE 22:14:51 55° SE
USA 238 3.7 22:06:00 10° NNW 22:13:09 84° ENE 22:14:57 55° SE
Cosmos 2360 Rocket 3.5 22:14:07 10° SW 22:19:20 38° WNW 22:24:35 10° N
COSMOS 2428 2.7 22:19:31 45° SSW 22:21:25 84° WNW 22:27:11 10° NNE
Cosmos 1892 Rocket 4.0 22:21:03 10° NNW 22:24:48 58° NW 22:24:48 58° NW
ATLAS 3B R/B 2.6 22:20:45 10° NW 22:27:22 68° WSW 22:28:26 58° SSW
H-2A R/B 2.0 22:29:40 73° N 22:29:40 73° N 22:34:10 10° NNW
Cosmos 1844 3.9 22:24:22 10° NNW 22:29:39 58° NE 22:29:39 58° NE
Cosmos 1745 Rocket 3.8 22:30:26 79° SE 22:30:41 81° E 22:36:51 10° N
Cosmos 1238 Rocket 4.2 22:25:54 10° NNW 22:32:33 67° W 22:33:56 52° SSW
Cosmos 2333 Rocket 3.2 22:36:58 34° NE 22:36:58 34° NE 22:40:09 10° NNE
NOSS 3-2 (C) 4.0 22:42:29 10° NNW 22:50:02 65° NE 22:50:54 62° E
Cosmos 1455 Rocket 4.5 22:51:15 37° NW 22:51:15 37° NW 22:54:29 10° N
Cosmos 2237 Rocket 3.8 22:54:11 23° NE 22:54:11 23° NE 22:56:21 10° NNE
SPOT 5 3.9 22:52:06 42° WNW 22:52:06 42° WNW 22:55:53 10° NNW
Cosmos 1386 Rocket 4.5 22:54:43 79° NNW 22:54:43 79° NNW 23:00:40 10° N
Lacrosse 5 4.5 22:56:43 10° WNW 23:00:11 18° NNW 23:03:41 10° NNE
NOSS 3-4 (A) 3.8 23:16:07 63° NNW 23:16:07 63° NNW 23:22:01 10° NNE
NOSS 3-4 (C) 3.8 23:16:18 62° NNW 23:16:18 62° NNW 23:22:08 10° NNE
CENTAUR R/B 3.7 23:09:23 10° NNW 23:16:49 43° NE 23:17:39 42° ENE
Terra 3.8 23:34:42 26° NW 23:34:42 26° NW 23:36:58 10° NNW
Cosmos 2278 Rocket 3.3 23:26:40 10° NNW 23:30:19 42° NNW 23:30:19 42° NNW
Cosmos 1844 Rocket 4.3 23:29:56 10° NW 23:33:29 27° W 23:33:29 27° W
Cosmos 2219 Rocket 3.9 23:47:43 28° WNW 23:48:06 28° WNW 23:52:55 10° N
